Baraboo, WI

5:31 AM CST on February 22, 2017 (GMT -0600)
Baraboo Wisconsin Dells

Weather History for KDLL - July, 2013

Change the Weather History Date:

Saturday, July 13, 2013

  Actual Average Record
Temperature  
Mean Temperature 71 °F -  
Max Temperature 82 °F 82 °F 95 °F (1974)
Min Temperature 60 °F 58 °F 44 °F (1990)
Cooling Degree Days 6    
Growing Degree Days 21 (Base 50)    
Moisture  
Dew Point 57 °F    
Average Humidity 63    
Maximum Humidity 79    
Minimum Humidity 46    
Precipitation  
Precipitation 0.00 in - - ()
Sea Level Pressure  
Sea Level Pressure 30.13 in    
Wind  
Wind Speed 5 mph (South)    
Max Wind Speed 10 mph    
Max Gust Speed 16 mph    
Visibility 10 miles    
Events      
Averages and records for this station are not official NWS values.
T = Trace of Precipitation, MM = Missing Value Source: NWS Daily Summary

Daily Weather History Graph

Daily Weather History Graph

Search for Another Location

Airport or City:

Trip Planner

Search our weather history database for the weather conditions in past years. The results will help you decide how hot, cold, wet, or windy it might be!

Date:

Astronomy

Jul. 13, 2013 Rise Set
Actual Time 5:30 AM CDT 8:38 PM CDT
Civil Twilight 4:55 AM CDT 9:13 PM CDT
Nautical Twilight 4:10 AM CDT 9:58 PM CDT
Astronomical Twilight 3:16 AM CDT 10:51 PM CDT
Moon 10:57 AM CDT (7/13) 11:07 PM CDT (7/13)
Length of Visible Light 16h 17m
Length of Day
15h 08m
Waxing Crescent, 26% of the Moon is Illuminated
Jul 13
Waxing Crescent
Jul 15
First Quarter
Jul 22
Full
Jul 29
Last Quarter
Aug 6
New

Hourly Weather History & Observations

Time (CDT) Temp. Heat Index Dew Point Humidity Pressure Visibility Wind Dir Wind Speed Gust Speed Precip Events Conditions
12:15 AM 64.8 °F - 55.4 °F 72% 30.09 in 10.0 mi Calm Calm - N/A   Clear
12:35 AM 65.3 °F - 54.9 °F 69% 30.09 in 10.0 mi SSW 3.5 mph - N/A   Clear
12:55 AM 65.1 °F - 54.7 °F 69% 30.10 in 10.0 mi Calm Calm - N/A   Clear
1:15 AM 62.8 °F - 54.7 °F 75% 30.11 in 10.0 mi SE 4.6 mph - N/A   Clear
1:35 AM 62.4 °F - 54.7 °F 76% 30.12 in 10.0 mi Calm Calm - N/A   Clear
1:55 AM 61.9 °F - 54.7 °F 77% 30.11 in 10.0 mi South 3.5 mph - N/A   Clear
2:15 AM 61.9 °F - 54.5 °F 77% 30.12 in 10.0 mi SSE 3.5 mph - N/A   Clear
2:35 AM 60.8 °F - 54.1 °F 79% 30.11 in 10.0 mi SSE 5.8 mph - N/A   Clear
2:55 AM 62.1 °F - 54.5 °F 76% 30.09 in 10.0 mi South 5.8 mph - N/A   Clear
3:15 AM 63.3 °F - 53.8 °F 71% 30.09 in 10.0 mi South 5.8 mph - N/A   Clear
3:35 AM 63.3 °F - 53.8 °F 71% 30.11 in 10.0 mi South 5.8 mph - N/A   Clear
4:55 AM 62.4 °F - 53.6 °F 73% 30.09 in 10.0 mi South 8.1 mph - N/A   Clear
5:35 AM 62.8 °F - 52.7 °F 70% 30.12 in 10.0 mi South 5.8 mph - N/A   Clear
5:55 AM 62.2 °F - 52.9 °F 71% 30.13 in 10.0 mi SSW 3.5 mph - N/A   Clear
6:15 AM 63.0 °F - 53.1 °F 70% 30.12 in 10.0 mi South 4.6 mph - N/A   Clear
6:35 AM 63.3 °F - 53.2 °F 70% 30.13 in 10.0 mi South 4.6 mph - N/A   Clear
6:55 AM 63.3 °F - 54.1 °F 72% 30.12 in 10.0 mi South 5.8 mph - N/A   Clear
7:15 AM 64.0 °F - 55.0 °F 73% 30.12 in 10.0 mi South 3.5 mph - N/A   Clear
7:35 AM 64.9 °F - 55.4 °F 71% 30.14 in 10.0 mi South 5.8 mph - N/A   Clear
7:55 AM 66.0 °F - 55.8 °F 69% 30.15 in 10.0 mi South 4.6 mph - N/A   Clear
8:15 AM 67.1 °F - 56.7 °F 69% 30.15 in 10.0 mi South 6.9 mph - N/A   Clear
8:35 AM 67.8 °F - 57.7 °F 70% 30.15 in 10.0 mi South 5.8 mph - N/A   Clear
8:55 AM 69.3 °F - 58.1 °F 68% 30.16 in 10.0 mi SSW 3.5 mph - N/A   Clear
9:15 AM 69.8 °F - 56.8 °F 63% 30.17 in 10.0 mi WSW 5.8 mph - N/A   Clear
9:35 AM 70.0 °F - 57.0 °F 63% 30.16 in 10.0 mi SW 4.6 mph - N/A   Clear
9:55 AM 70.7 °F - 57.9 °F 64% 30.16 in 10.0 mi SW 4.6 mph - N/A   Clear
10:15 AM 71.2 °F - 56.8 °F 60% 30.16 in 10.0 mi South 4.6 mph - N/A   Clear
10:35 AM 72.0 °F - 57.6 °F 60% 30.16 in 10.0 mi SSW 5.8 mph - N/A   Clear
10:55 AM 72.7 °F - 55.8 °F 55% 30.17 in 10.0 mi South 9.2 mph - N/A   Clear
11:15 AM 73.4 °F - 56.8 °F 56% 30.17 in 10.0 mi SSW 6.9 mph - N/A   Clear
11:55 AM 76.3 °F - 59.0 °F 55% 30.17 in 10.0 mi SSW 6.9 mph - N/A   Clear
12:15 PM 77.2 °F - 59.0 °F 53% 30.17 in 10.0 mi SW 8.1 mph - N/A   Clear
12:35 PM 76.8 °F - 57.6 °F 51% 30.16 in 10.0 mi SSW 8.1 mph - N/A   Clear
12:55 PM 78.4 °F - 57.9 °F 49% 30.15 in 10.0 mi SSW 9.2 mph - N/A   Clear
1:15 PM 78.3 °F - 57.7 °F 49% 30.15 in 10.0 mi South 10.4 mph - N/A   Clear
1:35 PM 79.0 °F - 57.9 °F 48% 30.15 in 10.0 mi SSW 10.4 mph - N/A   Clear
2:15 PM 80.6 °F 81.1 °F 59.4 °F 48% 30.14 in 10.0 mi South 9.2 mph 16.1 mph N/A   Clear
2:35 PM 80.1 °F 80.8 °F 59.5 °F 49% 30.14 in 10.0 mi SSW 10.4 mph - N/A   Scattered Clouds
2:55 PM 81.1 °F 81.5 °F 59.2 °F 47% 30.14 in 10.0 mi SW 6.9 mph - N/A   Scattered Clouds
3:15 PM 81.7 °F 81.9 °F 59.0 °F 46% 30.14 in 10.0 mi SSW 6.9 mph - N/A   Clear
3:35 PM 81.3 °F 81.6 °F 58.6 °F 46% 30.14 in 10.0 mi South 9.2 mph - N/A   Clear
3:55 PM 82.4 °F 82.7 °F 60.4 °F 47% 30.13 in 10.0 mi South 6.9 mph - N/A   Clear
4:35 PM 81.9 °F 82.1 °F 59.4 °F 46% 30.13 in 10.0 mi SE 8.1 mph - N/A   Scattered Clouds
4:55 PM 81.5 °F 82.0 °F 60.1 °F 48% 30.13 in 10.0 mi South 6.9 mph - N/A   Mostly Cloudy
5:15 PM 80.8 °F 81.5 °F 60.8 °F 50% 30.13 in 10.0 mi ESE 6.9 mph - N/A   Mostly Cloudy
5:35 PM 81.5 °F 81.8 °F 59.5 °F 47% 30.12 in 10.0 mi SE 6.9 mph - N/A   Scattered Clouds
5:55 PM 79.7 °F - 60.1 °F 51% 30.12 in 10.0 mi SE 6.9 mph - N/A   Scattered Clouds
6:15 PM 80.4 °F 81.0 °F 59.2 °F 48% 30.12 in 10.0 mi SE 6.9 mph - N/A   Scattered Clouds
7:15 PM 77.5 °F - 59.0 °F 53% 30.12 in 10.0 mi SE 4.6 mph - N/A   Clear
7:35 PM 75.6 °F - 60.6 °F 60% 30.12 in 10.0 mi ESE 4.6 mph - N/A   Clear
7:55 PM 73.2 °F - 60.1 °F 63% 30.12 in 10.0 mi ESE 3.5 mph - N/A   Clear
8:15 PM 71.4 °F - 60.1 °F 67% 30.12 in 10.0 mi ESE 4.6 mph - N/A   Clear
8:35 PM 70.7 °F - 59.4 °F 67% 30.12 in 10.0 mi ESE 4.6 mph - N/A   Clear
8:55 PM 69.8 °F - 59.2 °F 69% 30.12 in 10.0 mi ESE 6.9 mph - N/A   Clear
9:15 PM 69.1 °F - 58.8 °F 70% 30.13 in 10.0 mi ESE 6.9 mph - N/A   Clear
9:55 PM 67.8 °F - 57.6 °F 70% 30.14 in 10.0 mi SE 6.9 mph - N/A   Clear
10:15 PM 67.8 °F - 56.8 °F 68% 30.14 in 10.0 mi SE 6.9 mph - N/A   Clear
10:35 PM 67.1 °F - 56.3 °F 68% 30.15 in 10.0 mi SE 5.8 mph - N/A   Clear
10:55 PM 66.0 °F - 55.6 °F 69% 30.15 in 10.0 mi SSE 3.5 mph - N/A   Clear
11:15 PM 65.8 °F - 55.0 °F 68% 30.15 in 10.0 mi SSE 4.6 mph - N/A   Clear
11:35 PM 66.4 °F - 54.5 °F 66% 30.15 in 10.0 mi SSE 4.6 mph - N/A   Clear
11:55 PM 64.4 °F - 54.5 °F 70% 30.16 in 10.0 mi Calm Calm - N/A   Clear